Location: Unspecified
(0.0000°N, 0.0000°E)
Time: 07:04:16
(UTC+00:00)

Vanguard 3 - Visible Passes

Search period start: 26 October 2020 00:00
Search period end: 05 November 2020 00:00
Orbit: 507 x 3263 km, 33.4° (Epoch: 25 October)

Date Brightness Start Highest point End Pass type
(mag) Time Alt. Az. Time Alt. Az. Time Alt. Az.
26 Oct 11.0 00:45:53 16° E 00:45:53 16° E 00:48:49 10° E visible
26 Oct 9.1 02:50:31 85° W 02:51:00 88° NW 03:09:44 10° NE visible
26 Oct 10.3 04:55:09 12° W 05:08:22 40° NNW 05:26:19 10° NE visible
27 Oct 10.1 01:41:26 38° E 01:41:26 38° E 01:51:20 10° ENE visible
27 Oct 9.5 03:46:04 43° WNW 03:50:45 55° NNW 04:09:26 10° NE visible
28 Oct 9.4 02:36:54 64° NNE 02:36:54 64° NNE 02:51:58 10° NE visible
28 Oct 10.2 04:41:31 18° WNW 04:51:34 35° NNW 05:08:33 10° NE visible
29 Oct 10.6 01:27:40 26° ENE 01:27:40 26° ENE 01:33:51 10° ENE visible
29 Oct 9.5 03:32:17 46° NW 03:33:57 47° NNW 03:51:31 10° NE visible
30 Oct 9.9 02:22:56 44° NNE 02:22:56 44° NNE 02:34:06 10° NE visible
30 Oct 10.2 04:27:33 21° WNW 04:34:57 30° NNW 04:50:43 10° NNE visible
31 Oct 10.9 01:13:33 17° ENE 01:13:33 17° ENE 01:16:18 10° ENE visible
31 Oct 9.8 03:18:08 40° NNW 03:18:08 40° NNW 03:33:30 10° NE visible
01 Nov 10.4 02:08:38 30° NNE 02:08:38 30° NNE 02:16:11 10° NE visible
01 Nov 10.2 04:13:14 22° NW 04:18:31 26° NNW 04:32:47 10° NNE visible
02 Nov 10.1 03:03:40 31° N 03:03:40 31° N 03:15:25 10° NE visible
02 Nov 10.7 05:10:39 10° NW 05:20:59 19° N 05:33:02 10° NNE visible
03 Nov 10.7 01:54:02 20° NNE 01:54:02 20° NNE 01:58:14 10° NE visible
03 Nov 10.4 03:58:37 20° NNW 04:02:14 22° NNW 04:14:47 10° NNE visible
04 Nov 10.4 02:48:56 24° N 02:48:56 24° N 02:57:15 10° NNE visible
04 Nov 10.8 04:55:35 10° NW 05:04:51 17° N 05:15:41 10° NNE visible
